ATLAS 5 CENTAUR DEB, 43951

Orbit data source: Space-Track

ATLAS 5 CENTAUR DEB, 43951 is space debris in HEO originally from a launch on Wed, 17 Sep 2014 UTC launched from the Air Force Eastern Test Range (AFETR). Debris objects in space refer to the collection of defunct objects orbiting the Earth. Examples of debris include non-operational satellites, rocket bodies, and fragments generated from explosions, collisions, or faulty payload assembly.

Loading next visibility...
Identifier
43951, 2014-055E
Orbit
HEO
Country
Flag of USUS
Related business
Flag of USUnited Launch Alliance/Lockheed Martin (US)
Manufacturer
Unknown
Mission
Spacecraft
Bus & Motor
Unknown
Mass
Unknown
Launch date (UTC)
2014-09-17 (11 years ago)
Launch vehicle
Unknown
Launch site
Air Force Eastern Test Range (AFETR)
Object type
Payload
Rocket body
Debris
Shape & HBR
Unknown shape, 1.1 m
Radar Cross Section
Small (<0.1 m²)

Expand to show TLE details & history
Last TLE update: 2 days ago

TLE from 2 days ago
0 ATLAS 5 CENTAUR DEB
1 43951U 14055E   25314.26936518 -.00000029  00000-0  00000-0 0  9994
2 43951  20.2918 145.4791 4906102 163.6331 220.7666  1.89456530 49746
Epoch: 2025-11-10T06:27Z
TLE epoch observation values (Epoch: 2025-11-10T06:27:53.151Z)
Latitude
-0.00007°
Longitude
-1.13424°
Altitude
33,172.83 km
Speed
2.389 km/s
True Right ascension
09h 42m 02s
True Declination
0° 00' 00"
Sunlit
Object was in daylight at epoch
Visualization orbit readout
Latitude
Unknown
Longitude
Unknown
Altitude
Unknown
Speed
Unknown
Apparent Right ascension
Unknown
Apparent Declination
Unknown
Sunlit
N/A
Visualization observer readout
Local Sidereal Time
02:12:11
Azimuth
Unknown
Elevation
Unknown
Doppler factor
Unknown
Orbital elements
Apogee altitude
34,748.602 km
Perigee altitude
7,676.202 km
Semi-major axis
27,590.539 km
Eccentricity
0.49061
Inclination
20.2918°
RAAN
145.4791°
Arg. of periapsis
163.6331°
True anomaly
196.4028°
Mean anomaly
220.7666°
Eccentric anomaly
207.69996°
Mean motion
0.47359 °/min
Orbital period
760.15 mins
BSTAR
0
Loading maneuver chart data...
Computing Atmospheric mass density...

Documentation

Showing up to 5 results
|